This demonstration page uses our WeatherBlox Daily Observations layout. Learn more.

Left ArrowRight Arrow

Hourly Observations for January 24, 2018

Temp ( °F °C ) Dew Point ( °F °C ) Humidity (%) Winds ( mph kmh ) Pressure ( in mb ) Visibility ( mi km ) Precip ( " mm )
12:56 am 00:56 Clear 26 -3.3 20 -6.7 78 78 NW 7 11 30.33 1027 10 16 0.00 0.00
1:56 am 01:56 Clear 24 -4.4 18 -7.8 77 77 WNW 8 13 30.33 1027 10 16 0.00 0.00
2:56 am 02:56 Clear 24 -4.4 18 -7.8 77 77 W 7 11 30.34 1027 10 16 0.00 0.00
4:56 am 04:56 Clear 21 -6.1 16 -8.9 81 81 W 6 9 30.33 1027 10 16 0.00 0.00
5:56 am 05:56 Clear 20 -6.7 15 -9.4 81 81 WSW 6 9 30.34 1027 10 16 0.00 0.00
7:56 am 07:56 Sunny 18 -7.8 13 -10.6 81 81 WSW 5 7 30.35 1028 10 16 0.00 0.00
8:56 am 08:56 Sunny 21 -6.1 15 -9.4 78 78 WSW 8 13 30.34 1027 10 16 0.00 0.00
9:56 am 09:56 Sunny 25 -3.9 16 -8.9 69 69 WSW 8 13 30.33 1027 10 16 0.00 0.00
10:56 am 10:56 Sunny 29 -1.7 21 -6.1 72 72 SSW 8 13 30.32 1027 10 16 0.00 0.00
11:56 am 11:56 Sunny 34 1.1 22 -5.6 61 61 SW 15 24 30.28 1026 10 16 0.00 0.00
12:56 pm 12:56 Sunny 36 2.2 23 -5 59 59 SW 16 26 30.24 1024 10 16 0.00 0.00
1:56 pm 13:56 Sunny 38 3.3 25 -3.9 60 60 SW 15 24 30.20 1023 10 16 0.00 0.00
2:56 pm 14:56 Sunny 39 3.9 27 -2.8 62 62 SW 17 28 30.17 1022 10 16 0.00 0.00
3:56 pm 15:56 Sunny 41 5 29 -1.7 62 62 SW 14 22 30.17 1022 10 16 0.00 0.00
4:56 pm 16:56 Sunny 40 4.4 30 -1.1 68 68 SW 8 13 30.16 1022 10 16 0.00 0.00
5:56 pm 17:56 Clear 38 3.3 29 -1.7 70 70 W 8 13 30.18 1022 10 16 0.00 0.00
6:56 pm 18:56 Clear 36 2.2 28 -2.2 73 73 W 8 13 30.19 1022 10 16 0.00 0.00
7:56 pm 19:56 Clear 34 1.1 27 -2.8 76 76 SW 9 15 30.18 1022 10 16 0.00 0.00
8:56 pm 20:56 Clear 33 0.6 26 -3.3 75 75 WSW 10 17 30.17 1022 10 16 0.00 0.00
9:56 pm 21:56 Clear 30 -1.1 26 -3.3 85 85 Calm 30.17 1022 10 16 0.00 0.00
10:56 pm 22:56 Clear 31 -0.6 26 -3.3 82 82 WSW 6 9 30.16 1021 10 16 0.00 0.00
11:56 pm 23:56 Clear 33 0.6 25 -3.9 72 72 W 9 15 30.14 1021 10 16 0.00 0.00

Powered by AerisWeather